Location: Strawberry
(45.6646°N, 111.9596°W)
Time: 17:31:18
(UTC+00:00)

SR - Pass Details

Date: 03 October 2022
Orbit: 577 x 874 km, 66.7° (Epoch: 05 December)

Event Time Altitude Azimuth Distance (km) Brightness Sun altitude
Rises 11:50:18 0° 330° (NNW) 3,377 ? -17.9°
Reaches altitude 10° 11:53:04 10° 340° (NNW) 2,399 ? -17.5°
Maximum altitude 11:58:03 34° 44° (NE) 1,250 ? -16.6°
Drops below altitude 10° 12:02:40 10° 110° (ESE) 2,210 ? -15.8°
Sets 12:05:07 0° 119° (ESE) 3,075 ? -15.4°
